N8IFU Weather Reports


time (UTC)temp
C
wind
direction
speed
KPH
gust
KPH
rain 1hr
cm
rain 24hr
cm
rain mn
cm
humidity
%
barometer
mb
20260505124547 13 268 3.2 9.7 0.00 0.28 0.18 76 1003.4
20260505123045 13 259 4.8 12.9 0.00 0.28 0.18 80 1003.0
20260505121555 12 238 6.4 14.5 0.00 0.28 0.18 86 1003.3
20260505120047 12 271 3.2 11.3 0.00 0.28 0.18 88 1003.1
20260505114548 12 270 3.2 6.4 0.00 0.28 0.18 89 1003.2
20260505113048 12 284 6.4 9.7 0.00 0.28 0.18 88 1003.0
20260505111550 12 255 6.4 12.9 0.00 0.28 0.18 88 1002.4
20260505101552 12 281 1.6 11.3 0.00 0.28 0.18 87 1001.2
20260505100058 12 219 3.2 14.5 0.00 0.28 0.18 87 1001.3
20260505094552 12 228 4.8 11.3 0.00 0.28 0.18 87 1001.3
20260505093050 13 278 3.2 11.3 0.00 0.28 0.18 87 1001.2
20260505091544 13 279 4.8 14.5 0.00 0.28 0.18 87 1001.1
20260505090059 13 236 4.8 17.7 0.00 0.28 0.18 87 1001.0
20260505084551 13 233 6.4 14.5 0.00 0.28 0.18 88 1001.0
20260505083056 13 259 3.2 12.9 0.00 0.28 0.18 88 1000.6
20260505081548 13 245 1.6 8.0 0.00 0.28 0.18 89 1000.3
20260505080047 13 267 3.2 11.3 0.00 0.28 0.18 89 1000.4
20260505074554 13 265 1.6 9.7 0.00 0.28 0.18 88 1000.2
20260505073056 13 255 0.0 8.0 0.00 0.28 0.18 87 999.7
20260505071547 13 248 3.2 9.7 0.00 0.28 0.18 86 999.7
20260505070048 13 261 1.6 8.0 0.00 0.28 0.18 86 999.3
20260505064556 13 129 1.6 14.5 0.00 0.28 0.18 85 999.4
20260505063050 13 258 4.8 16.1 0.00 0.28 0.18 85 1000.2
20260505061550 13 266 4.8 14.5 0.00 0.28 0.18 84 1000.4
20260505060053 14 217 6.4 12.9 0.00 0.28 0.18 84 1000.2
20260505054553 13 257 3.2 9.7 0.03 0.28 0.18 85 1000.0
20260505053105 13 0 1.6 14.5 0.13 0.28 0.18 85 999.4
20260505051544 13 82 1.6 9.7 0.18 0.28 0.18 87 999.9
20260505041546 18 258 6.4 20.9 0.00 0.10 0.00 69 1000.5
20260505040048 18 329 4.8 24.1 0.00 0.10 0.00 69 1000.1
20260505034545 17 230 4.8 22.5 0.00 0.10 0.10 70 999.7
20260505033102 17 229 3.2 17.7 0.00 0.10 0.10 71 999.6
20260505031545 17 243 3.2 14.5 0.00 0.10 0.10 73 999.7
20260505030048 16 240 1.6 9.7 0.00 0.10 0.10 74 999.5
20260505024544 16 0 3.2 8.0 0.00 0.10 0.10 75 1000.0
20260505023056 16 27 0.0 4.8 0.00 0.10 0.10 76 1000.0
20260505021613 16 276 0.0 12.9 0.00 0.10 0.10 78 1000.1
20260505020053 15 112 3.2 11.3 0.05 0.10 0.10 81 999.9
20260505014549 15 259 0.0 8.0 0.10 0.10 0.10 83 999.9
20260505013046 15 0 1.6 9.7 0.10 0.10 0.10 85 999.8
20260505011559 15 0 0.0 3.2 0.10 0.10 0.10 82 999.6
20260505010057 16 214 0.0 6.4 0.05 0.05 0.05 78 999.7
20260505004554 16 239 3.2 11.3 0.00 0.00 0.00 77 999.3
20260505003050 16 248 3.2 14.5 0.00 0.00 0.00 77 999.2
20260505001549 16 280 4.8 16.1 0.00 0.00 0.00 77 998.9
20260505000050 16 275 3.2 17.7 0.00 0.00 0.00 74 998.9
20260504234610 17 130 3.2 16.1 0.00 0.00 0.00 70 999.7
20260504233041 18 291 6.4 45.1 0.00 0.00 0.00 59 999.1
20260504231555 22 239 3.2 16.1 0.00 0.00 0.00 48 999.0
20260504230049 23 342 3.2 16.1 0.00 0.00 0.00 47 998.8
20260504224550 23 110 4.8 12.9 0.00 0.00 0.00 46 998.7
20260504223047 24 238 4.8 17.7 0.00 0.00 0.00 46 998.7
20260504221549 23 297 6.4 16.1 0.00 0.00 0.00 45 999.1
20260504220055 23 263 8.0 20.9 0.00 0.00 0.00 45 999.3
20260504214551 23 187 6.4 16.1 0.00 0.00 0.00 44 999.4
20260504213100 23 252 9.7 24.1 0.00 0.00 0.00 43 999.5
20260504211547 23 76 4.8 29.0 0.00 0.00 0.00 41 999.7
20260504210056 23 255 9.7 25.7 0.00 0.00 0.00 38 1000.1
20260504204625 23 248 6.4 24.1 0.00 0.00 0.00 37 1000.0
20260504203043 23 240 6.4 22.5 0.00 0.00 0.00 39 1000.1
20260504201549 23 302 8.0 24.1 0.00 0.00 0.00 38 1000.3
20260504200054 23 70 6.4 27.4 0.00 0.00 0.00 36 1000.3
20260504194552 23 268 6.4 22.5 0.00 0.00 0.00 36 1000.6
20260504193047 23 266 6.4 17.7 0.00 0.00 0.00 36 1000.5
20260504191545 23 270 8.0 25.7 0.00 0.00 0.00 33 1000.6
20260504190056 23 92 8.0 25.7 0.00 0.00 0.00 31 1000.9
20260504184603 23 245 12.9 29.0 0.00 0.00 0.00 30 1001.0
20260504183057 23 259 8.0 30.6 0.00 0.00 0.00 34 1001.2
20260504181550 23 87 6.4 19.3 0.00 0.00 0.00 40 1001.3
20260504180051 22 248 8.0 25.7 0.00 0.00 0.00 39 1001.3
20260504174552 22 232 8.0 19.3 0.00 0.00 0.00 41 1001.6
20260504173049 22 243 11.3 29.0 0.00 0.00 0.00 41 1001.9
20260504171553 22 110 6.4 19.3 0.00 0.00 0.00 46 1002.3